This is the latest recevied weather packets stored in our database for station/object WY7EM. If no packets are shown the sender has not sent any weather packets the latest 10 day(s).
| Time | Temp. | Humidity | Pressure | Rain* | Wind** | Luminosity | Snow |
|---|---|---|---|---|---|---|---|
| 1777421325 | 21.67° C | 19% | 1014.9 hPa | 0 mm | - | 268 W/m² | - |
| 1777421022 | 21.11° C | 19% | 1014.7 hPa | 0 mm | - | 351 W/m² | - |
| 1777420718 | 20.56° C | 19% | 1014.7 hPa | 0 mm | - | 390 W/m² | - |
| 1777420415 | 20.56° C | 19% | 1014.9 hPa | 0 mm | - | 360 W/m² | - |
| 1777420111 | 20.56° C | 20% | 1014.8 hPa | 0 mm | - | 282 W/m² | - |
| 1777419807 | 21.67° C | 19% | 1014.7 hPa | 0 mm | - | 424 W/m² | - |
| 1777419505 | 21.11° C | 19% | 1014.9 hPa | 0 mm | - | 426 W/m² | - |
| 1777419204 | 21.11° C | 19% | 1014.8 hPa | 0 mm | - | 420 W/m² | - |
| 1777418900 | 21.67° C | 19% | 1014.9 hPa | 0 mm | - | 414 W/m² | - |
| 1777418596 | 21.11° C | 19% | 1014.9 hPa | 0 mm | - | 441 W/m² | - |
| 1777418292 | 21.67° C | 19% | 1015.1 hPa | 0 mm | - | 429 W/m² | - |
| 1777417988 | 21.67° C | 18% | 1015.1 hPa | 0 mm | - | 485 W/m² | - |
| 1777417684 | 21.11° C | 19% | 1015.1 hPa | 0 mm | - | 468 W/m² | - |
| 1777417380 | 21.67° C | 19% | 1014.9 hPa | 0 mm | - | 499 W/m² | - |
| 1777417077 | 21.11° C | 19% | 1015.3 hPa | 0 mm | - | 412 W/m² | - |
| 1777416772 | 21.11° C | 19% | 1015.2 hPa | 0 mm | - | 521 W/m² | - |
| 1777416467 | 21.67° C | 19% | 1015.3 hPa | 0 mm | - | 543 W/m² | - |
| 1777416163 | 21.67° C | 19% | 1015.2 hPa | 0 mm | - | 553 W/m² | - |
| 1777415858 | 21.11° C | 19% | 1015.2 hPa | 0 mm | - | 566 W/m² | - |
| 1777415553 | 22.22° C | 19% | 1015.1 hPa | 0 mm | - | 578 W/m² | - |
| 1777415249 | 21.11° C | 20% | 1015.4 hPa | 0 mm | - | 590 W/m² | - |
| 1777414945 | 21.11° C | 19% | 1015.3 hPa | 0 mm | - | 605 W/m² | - |
| 1777414644 | 20.56° C | 20% | 1015.3 hPa | 0 mm | - | 618 W/m² | - |
| 1777414339 | 21.11° C | 20% | 1015.5 hPa | 0 mm | - | 632 W/m² | - |
| 1777414034 | 20.56° C | 20% | 1015.6 hPa | 0 mm | - | 646 W/m² | - |
* Rain latest hour (hover to see other rain measurements)
** Current wind speed in m/s (hover to see current wind gust speed)